Regional Weather Roundup
Issued by NWS Memphis, TN

Home | Current Version | Previous Version | Text Only | Print | Product List | Glossary On
Versions: 1 2 3 4 5 6 7 8 9 10 11 12 13 14 15 16 17 18 19 20 21 22 23 24 25 26 27 28 29 30 31 32 33 34 35 36 37 38 39 40 41 42 43 44 45 46 47 48 49 50
000
ASUS44 KMEG 190010
RWRMEG
MEMPHIS CWA HOURLY WEATHER ROUNDUP
NATIONAL WEATHER SERVICE MEMPHIS TN
700 PM CDT SAT APR 18 2015

...WEST TENNESSEE...

CITY           SKY/WX    TMP DP  RH WIND       PRES   REMARKS
MEMPHIS INTL   CLOUDY    70  61  73 S6        29.85S
6HR MIN TEMP:  70; 6HR MAX TEMP:  75;

NWS MEMPHIS      N/A     70 N/A N/A MISG        N/A
JACKSON        CLOUDY    73  60  63 S3        29.84F
6HR MIN TEMP:  73; 6HR MAX TEMP:  78;

LEXINGTON      PTCLDY    73  63  68 CALM      29.85F
SAVANNAH       PTCLDY    72  32  23 S3        29.86F
DYERSBURG      CLOUDY    73  55  53 CALM      29.85F
6HR MIN TEMP:  73; 6HR MAX TEMP:  77;

UNION CITY     CLEAR     75  32  20 CALM      29.84S
PARIS          CLEAR     72  59  64 E3        29.85F


...EASTERN ARKANSAS...

CITY           SKY/WX    TMP DP  RH WIND       PRES   REMARKS
JONESBORO      CLOUDY    72  63  73 SE5       29.83F
6HR MIN TEMP:  72; 6HR MAX TEMP:  75;

WEST MEMPHIS   CLOUDY    68  64  87 SW3       29.84S
6HR MIN TEMP:  68; 6HR MAX TEMP:  73;

BATESVILLE     CLOUDY    72  63  73 E6        29.84F
6HR MIN TEMP:  72; 6HR MAX TEMP:  75;

NEWPORT        LGT RAIN  72  66  81 SE15      29.85S
6HR MIN TEMP:  72; 6HR MAX TEMP:  76; 6HR PCP: TRACE;

WALNUT RIDGE   CLOUDY    73  63  68 CALM      29.84F
6HR MIN TEMP:  73; 6HR MAX TEMP:  75;

BLYTHEVILLE    CLOUDY    75  62  64 CALM      29.84F
6HR MIN TEMP:  74; 6HR MAX TEMP:  78;

SEARCY         LGT RAIN  67  65  93 E3        29.86S
6HR MIN TEMP:  67; 6HR MAX TEMP:  74; 6HR PCP:  0.07;

STUTTGART      CLOUDY    66  63  88 E10       29.84S
6HR MIN TEMP:  66; 6HR MAX TEMP:  73; 6HR PCP:  0.08;

PINE BLUFF     CLOUDY    66  64  93 E10       29.82F
6HR MIN TEMP:  65; 6HR MAX TEMP:  70; 6HR PCP:  0.14;

MONTICELLO     LGT RAIN  66  65  96 NE8       29.80F
6HR MIN TEMP:  65; 6HR MAX TEMP:  68; 6HR PCP:  0.61;



...NORTH MISSISSIPPI...

CITY           SKY/WX    TMP DP  RH WIND       PRES   REMARKS
TUPELO         CLOUDY    68  62  81 S5        29.86S
6HR MIN TEMP:  68; 6HR MAX TEMP:  70;

OXFORD         CLOUDY    64  61  88 SE5       29.87F
OLIVE BRANCH   CLOUDY    66  66 100 S3        29.86S
TUNICA         CLOUDY    68  63  83 SE6       29.86S
CLARKSDALE       N/A     66  66 100 E6        29.86S
CORINTH        CLOUDY    70  63  78 S3        29.85F
GREENWOOD      CLOUDY    67  63  87 E12       29.83F
6HR MIN TEMP:  67; 6HR MAX TEMP:  70; 6HR PCP:  0.01;

COLUMBUS       CLOUDY    68  63  84 S7        29.86F
6HR MIN TEMP:  68; 6HR MAX TEMP:  70;

STARKVILLE     CLOUDY    64  63  94 SE5       29.88R
GOLDEN TRIANGL CLOUDY    66  61  82 SE7       29.86F


...SOUTHEAST MISSOURI...

CITY           SKY/WX    TMP DP  RH WIND       PRES   REMARKS
WEST PLAINS    CLOUDY    72  55  55 CALM      29.87F
6HR MIN TEMP:  68; 6HR MAX TEMP:  73;

POPLAR BLUFF   CLOUDY    74  61  63 CALM      29.84F
6HR MIN TEMP:  74; 6HR MAX TEMP:  77;

CAPE GIRARDEAU MOCLDY    75  61  61 CALM      29.85F
6HR MIN TEMP:  74; 6HR MAX TEMP:  78;



...NORTHWEST ALABAMA...

CITY           SKY/WX    TMP DP  RH WIND       PRES   REMARKS
MUSCLE SHOALS  MOCLDY    72  62  71 S5        29.88F
6HR MIN TEMP:  72; 6HR MAX TEMP:  76;



...MIDDLE TENNESSEE...

CITY           SKY/WX    TMP DP  RH WIND       PRES   REMARKS
NASHVILLE      LGT RAIN  67  62  84 NE3       29.91R
6HR MIN TEMP:  66; 6HR MAX TEMP:  81; 6HR PCP:  0.34;

CLARKSVILLE    CLOUDY    74  60  61 E5        29.87F
6HR MIN TEMP:  74; 6HR MAX TEMP:  81;

COLUMBIA       CLEAR     72  32  23 SE3       29.86F


...WESTERN KENTUCKY...

CITY           SKY/WX    TMP DP  RH WIND       PRES   REMARKS
PADUCAH        MOCLDY    75  57  53 CALM      29.85F
6HR MIN TEMP:  74; 6HR MAX TEMP:  80;

FORT CAMPBELL  DRIZZLE   75  61  60 E5        29.87F
6HR MIN TEMP:  75; 6HR MAX TEMP:  78; 6HR PCP: TRACE;



...CENTRAL ARKANSAS...

CITY           SKY/WX    TMP DP  RH WIND       PRES   REMARKS
LITTLE ROCK    RAIN      67  63  87 E6        29.83F FOG
6HR MIN TEMP:  67; 6HR MAX TEMP:  74; 6HR PCP:  0.43;



SKY/WX REPORTED AS FAIR MEANS FEW OR NO CLOUDS BELOW
12 THOUSAND FEET.



USA.gov is the U.S. government's official web portal to all federal, state and local government web resources and services.